CAPE
0 0 0 0 1 0 0 0 0 0 0 0 0 0 0 91 486 1035 1807 1562 1045 826 1427 1903 2136 1924 1719 1638 1849 1604 1337 1063 1079 1322 1146 884 723 783 710 747 749 788 641
0 0 0 0 0 0 0 0 0 0 0 0 0 0 0 0 0 0 261 888 738 501 642 1199 1512 1769 1562 1400 1121 1437 1390 1086 1181 1183 1142 873 630 503 406 439 472 581 599
0 0 0 0 0 0 0 0 0 0 0 0 0 0 0 0 0 0 0 0 228 195 56 292 961 959 1045 875 881 927 1142 1152 878 924 1023 594 393 308 265 283 311 364 460
0 0 0 0 0 0 0 0 0 0 0 0 0 0 0 0 0 0 0 0 0 42 57 32 29 234 536 778 938 1221 784 750 798 595 389 183 80 118 89 186 237 278 318
0 0 0 0 0 0 0 0 0 0 0 0 0 0 0 0 0 0 0 0 0 11 52 50 3 5 36 239 489 851 1175 905 785 739 419 165 96 105 214 195 209 225 252
0 0 0 0 0 0 0 0 0 0 0 0 0 0 0 0 1 7 8 7 0 0 0 0 0 1 0 8 130 542 629 936 903 798 566 216 159 57 185 297 233 219 226
0 0 0 0 0 0 0 0 0 0 0 0 0 0 0 1 0 5 1 2 0 0 0 0 0 0 3 7 9 11 11 26 305 799 730 439 209 47 92 156 245 228 190
0 0 0 0 0 0 0 0 0 0 0 2 4 3 0 0 0 1 1 0 0 0 0 0 0 0 4 7 7 7 10 10 13 8 4 78 203 276 131 259 251 195 207
0 0 0 0 0 1 2 5 5 3 0 1 7 1 4 3 0 0 2 2 0 0 0 0 0 1 3 1 2 3 2 1 7 10 12 9 1 58 362 356 286 245 226
0 0 0 2 4 4 4 4 3 5 2 2 0 3 4 7 14 7 1 4 3 2 1 0 0 1 1 4 0 4 1 1 0 4 10 12 11 4 3 83 164 110 275
0 0 2 5 6 4 7 6 3 2 1 1 2 2 4 5 2 5 11 2 0 2 4 0 11 0 0 0 0 1 1 1 2 2 8 11 14 10 7 4 5 24 219
0 1 2 6 6 5 7 7 3 2 2 2 5 8 5 10 9 10 9 7 4 2 2 13 7 0 0 0 0 0 1 4 3 5 6 9 12 11 10 6 9 8 6
0 0 1 5 6 4 5 5 2 2 1 1 2 4 6 8 10 9 10 11 10 2 8 1 1 0 0 0 0 0 1 3 4 2 5 6 8 10 11 10 9 7 7
0 0 2 4 4 2 4 5 0 1 3 2 2 4 4 6 10 10 14 7 9 6 6 2 0 0 0 0 0 0 5 2 5 4 2 10 11 8 8 7 6 7 8
0 0 1 2 3 0 1 4 0 0 1 2 4 5 4 5 11 5 7 13 12 8 7 13 0 0 0 0 0 3 8 4 6 4 6 10 12 11 9 8 7 7 8
0 0 1 0 0 0 0 0 0 0 0 0 2 4 5 6 4 8 8 10 17 9 9 32 15 8 1 0 0 3 5 1 6 4 7 10 11 12 9 9 10 11 9
0 0 1 0 0 0 0 0 0 0 0 0 0 3 5 7 7 9 7 10 10 13 18 15 20 7 2 1 0 4 3 0 0 4 5 11 7 9 8 7 8 10 9
0 1 2 0 0 0 0 0 0 0 0 0 0 0 1 1 6 6 8 10 9 10 10 7 9 3 3 0 1 5 9 0 0 0 0 2 10 5 7 4 7 7 6
0 2 1 0 0 0 0 0 0 0 0 0 0 1 1 2 2 3 2 2 1 1 3 3 1 1 0 0 0 0 2 4 0 0 0 0 1 6 5 5 4 5 8
0 1 1 0 0 0 0 0 0 0 0 0 0 1 2 3 4 3 0 1 0 0 0 0 0 0 0 0 0 0 0 1 0 0 0 0 0 4 0 4 3 4 5
0 0 2 0 0 0 0 0 0 0 0 0 0 0 1 4 4 6 1 3 0 0 0 0 0 0 0 0 0 0 0 0 0 0 0 0 0 0 1 0 0 2 4
1 1 2 0 0 0 1 0 0 0 0 0 0 0 0 0 0 2 3 5 3 1 0 0 0 0 0 0 0 0 0 0 0 0 0 0 0 0 0 0 1 0 2
1 4 1 0 0 2 1 1 0 1 2 2 1 0 0 0 0 0 0 0 3 3 1 0 0 5 3 1 0 0 0 0 0 0 0 0 0 0 0 0 0 0 0
4 10 5 2 2 3 3 0 0 7 9 7 7 5 4 1 0 0 0 0 1 4 4 2 5 6 5 2 0 0 0 0 2 0 0 0 1 0 1 2 0 0 0
3 2 6 4 5 8 2 0 1 9 12 11 13 8 6 3 0 0 0 0 0 0 1 1 2 3 3 5 1 0 0 0 0 0 10 4 2 2 2 2 1 0 0
3 5 3 0 2 7 2 0 1 8 7 9 6 7 3 3 1 0 0 0 0 0 0 0 0 0 1 2 3 2 2 0 0 0 3 4 1 3 0 0 0 0 0
CIN
0 0 0 0 0 0 0 0 0 0 0 0 0 0 0 -90 -77 -20 -1 -18 -73 -108 -36 -3 -2 -10 -17 -29 -31 -28 -32 -33 -33 -26 -18 -37 -38 -32 -28 -17 -12 -6 -7
0 0 0 0 0 0 0 0 0 0 0 0 0 0 0 0 0 -23 -89 -22 -66 -121 -109 -27 -3 0 -1 -9 -23 -18 -29 -46 -21 -29 -24 -96 -109 -70 -53 -54 -40 -35 -19
0 0 0 0 0 0 0 0 0 0 0 0 0 0 0 0 0 0 0 -15 -67 -118 -220 -112 -19 -3 -1 -8 -5 -7 -13 -28 -38 -29 -24 -71 -143 -120 -134 -88 -42 -39 -41
0 0 0 0 0 0 0 0 0 0 0 0 0 0 0 0 0 0 0 0 0 -190 -158 -170 -151 -66 -10 -1 -8 0 -13 -39 -43 -69 -77 -128 -173 -237 -213 -117 -65 -36 -29
0 0 0 0 0 0 0 0 0 0 0 0 0 0 0 0 0 0 0 0 0 0 -183 -205 -1 -151 -151 -37 -24 0 0 -6 -32 -38 -61 -118 -157 -178 -137 -114 -55 -49 -31
0 0 0 0 0 0 0 0 0 0 0 0 0 0 0 0 0 0 0 0 0 0 0 0 0 0 0 -48 -105 -6 0 0 -5 -11 -11 -46 -92 -159 -105 -71 -37 -60 -39
0 0 0 0 0 0 0 0 0 0 0 0 0 0 0 0 0 0 0 0 0 0 0 0 0 0 0 0 0 -1 0 -122 0 0 0 -2 -40 -150 -79 -61 -32 -25 -49
0 0 0 0 0 0 0 0 0 0 0 0 0 0 0 0 0 0 0 0 0 0 0 0 0 0 0 0 0 0 0 0 0 0 0 -21 -32 -5 -24 -8 -24 -54 -47
0 0 0 0 0 0 0 0 0 0 0 0 0 0 0 0 0 0 0 0 0 0 0 0 0 0 0 0 0 0 0 0 0 0 0 0 0 -51 -2 -6 -11 -23 -31
0 0 0 0 0 0 0 0 0 0 0 0 0 0 0 0 0 0 0 0 0 0 0 0 0 0 0 0 0 0 0 0 0 0 0 0 0 0 0 -71 -35 -32 -16
0 0 0 0 0 0 0 0 0 0 0 0 0 0 0 0 0 0 0 0 0 0 0 0 0 0 0 0 0 0 0 0 0 0 0 0 0 0 0 0 0 -15 -7
0 0 0 0 0 0 0 0 0 0 0 0 0 0 0 0 0 0 0 0 0 0 0 0 0 0 0 0 0 0 0 0 0 0 0 0 0 0 0 0 0 0 -56
0 0 0 0 0 0 0 0 0 0 0 0 0 0 0 0 0 0 0 0 0 0 0 -1 0 0 0 0 0 0 0 0 0 0 0 0 0 0 0 0 0 0 0
0 0 0 0 0 0 0 0 0 0 0 0 0 0 0 0 0 0 0 0 0 0 0 0 0 0 0 0 0 0 0 0 0 0 0 0 0 0 0 0 0 0 0
0 0 0 0 0 0 0 0 0 0 0 0 0 0 0 0 0 0 0 0 0 0 0 0 0 0 0 0 0 0 0 0 0 0 0 0 0 0 0 0 0 0 0
0 0 0 0 0 0 0 0 0 0 0 0 0 0 0 0 0 0 0 0 0 0 0 0 0 0 0 0 0 0 0 0 0 0 0 0 0 0 0 0 0 0 0
0 0 0 0 0 0 0 0 0 0 0 0 0 0 0 0 0 0 0 0 0 0 0 0 0 0 0 0 0 0 0 0 0 0 0 0 0 0 0 0 0 0 0
0 0 0 0 0 0 0 0 0 0 0 0 0 0 0 0 0 0 0 0 0 0 0 0 0 0 0 0 0 0 0 0 0 0 0 0 0 0 0 0 0 0 0
0 0 0 0 0 0 0 0 0 0 0 0 0 0 0 0 0 0 0 0 0 0 0 0 0 0 0 0 0 0 0 0 0 0 0 0 0 0 0 0 0 0 0
0 0 0 0 0 0 0 0 0 0 0 0 0 0 0 0 0 0 0 0 0 0 0 0 0 0 0 0 0 0 0 0 0 0 0 0 0 0 0 0 0 0 0
0 0 0 0 0 0 0 0 0 0 0 0 0 0 0 0 0 0 0 0 0 0 0 0 0 0 0 0 0 0 0 0 0 0 0 0 0 0 0 0 0 0 0
0 0 0 0 0 0 0 0 0 0 0 0 0 0 0 0 0 0 0 0 0 0 0 0 0 0 0 0 0 0 0 0 0 0 0 0 0 0 0 0 0 0 0
0 0 0 0 0 0 0 0 0 0 0 0 0 0 0 0 0 0 0 0 0 0 0 0 0 0 0 0 0 0 0 0 0 0 0 0 0 0 0 0 0 0 0
0 0 0 0 0 0 0 0 0 0 0 0 0 0 0 0 0 0 0 0 0 0 0 0 0 0 0 0 0 0 0 0 0 0 0 0 0 0 0 0 0 0 0
0 0 0 0 0 0 0 0 0 0 0 0 0 0 0 0 0 0 0 0 0 0 0 0 0 0 0 0 0 0 0 0 0 0 0 0 0 0 0 0 0 0 0
0 0 0 0 0 0 0 0 0 0 0 0 0 0 0 0 0 0 0 0 0 0 0 0 0 0 0 0 0 0 0 0 0 0 0 0 0 0 0 0 0 0 0
Wind_Speed
7 6 6 6 6 6 6 6 6 6 6 7 6 7 8 8 7 5 5 7 10 13 17 19 19 19 16 16 19 18 20 18 20 20 20 18 16 17 18 18 18 18 17
6 6 6 6 7 7 6 6 7 6 5 7 7 8 9 9 9 8 7 8 8 12 14 16 17 16 14 10 9 13 21 21 26 22 23 24 22 20 19 19 19 20 20
9 7 6 6 6 6 7 6 7 6 6 6 8 8 8 10 9 9 8 8 9 8 11 12 12 11 9 9 12 17 21 21 23 22 19 17 16 16 19 21 22 21 21
9 8 7 7 6 5 6 6 6 5 5 6 7 7 7 8 9 9 8 7 7 7 5 8 10 12 12 14 17 18 12 10 16 20 20 19 17 16 17 18 21 23 23
9 7 7 7 6 6 6 6 5 6 6 7 8 8 6 6 7 7 8 7 6 6 5 7 9 10 11 14 19 20 20 19 20 22 23 23 23 20 16 18 21 22 24
9 7 7 7 5 5 5 6 6 6 5 8 8 7 7 4 4 6 7 7 8 8 8 10 8 8 14 12 12 16 20 23 23 20 20 21 19 14 11 13 20 23 25
9 8 6 7 6 7 7 8 6 8 6 10 6 6 4 3 5 6 7 7 10 10 11 10 6 6 6 18 27 26 13 16 13 17 18 21 20 15 13 15 20 23 24
10 8 8 7 8 6 9 10 10 7 5 8 5 4 4 1 5 5 5 7 10 8 10 10 10 10 7 6 15 24 22 22 19 20 17 12 10 16 16 21 21 23 23
9 9 9 8 9 7 6 7 7 8 6 6 8 5 3 3 10 2 4 6 8 8 8 8 9 9 10 9 11 15 21 21 20 19 19 19 15 11 18 19 17 19 20
9 9 9 8 7 5 6 6 6 7 7 7 5 6 4 4 3 6 5 9 9 11 11 8 8 8 9 7 13 18 21 21 19 21 20 20 18 15 13 8 10 10 16
9 8 8 7 7 6 7 9 9 9 7 5 4 4 4 5 3 3 6 7 11 8 8 10 6 6 8 8 9 13 18 18 18 18 19 19 18 16 13 10 12 12 16
5 7 7 7 7 7 9 9 10 11 9 6 5 5 4 3 5 4 4 8 11 7 9 4 5 7 8 9 11 19 18 18 18 18 18 18 19 19 17 13 11 12 16
4 6 6 7 7 9 9 9 9 9 8 6 7 5 4 4 5 4 6 7 6 7 4 8 8 9 9 10 12 19 15 18 18 19 18 19 20 19 19 17 16 13 12
5 6 7 7 8 9 9 8 7 7 7 7 9 7 4 5 5 5 5 7 7 5 6 5 7 8 9 9 13 15 8 17 18 19 19 19 20 21 21 20 21 21 21
5 7 7 8 9 9 9 8 7 8 7 7 7 6 5 4 5 5 5 5 5 5 6 7 6 12 9 10 13 10 8 18 18 19 18 21 21 23 22 22 22 22 22
7 7 7 8 9 8 9 8 7 8 7 6 5 7 6 6 6 6 5 5 4 5 5 6 7 10 11 10 12 10 8 12 20 20 19 20 22 23 24 24 23 24 24
7 8 7 9 8 9 8 8 8 8 8 8 7 8 8 8 6 6 6 6 6 6 6 4 6 10 11 13 11 10 8 9 9 19 19 20 22 23 25 26 25 25 25
8 8 8 9 9 10 8 9 9 8 9 9 8 9 10 6 8 8 6 8 7 6 6 7 5 8 9 12 10 8 7 8 10 15 20 19 22 23 23 26 25 25 25
8 9 9 9 9 9 10 10 9 9 8 8 8 9 10 10 9 8 8 7 7 6 6 5 5 6 7 9 9 8 7 7 10 17 18 20 19 21 23 24 26 25 24
8 8 10 10 10 10 9 10 8 7 7 7 8 9 11 11 11 10 9 9 8 6 6 6 6 7 9 11 8 9 6 5 9 12 11 18 14 15 22 22 26 26 25
8 8 9 10 10 9 7 7 8 6 6 7 8 9 10 13 16 16 9 11 9 7 6 6 7 7 9 9 12 10 7 3 5 13 7 10 8 7 11 17 21 26 26
8 9 9 10 11 8 12 13 7 7 8 7 7 9 8 9 12 16 16 20 17 10 11 9 10 11 14 12 10 9 9 7 4 13 9 8 9 6 7 13 23 25 25
9 10 11 10 11 11 13 13 10 8 9 9 10 9 9 7 9 9 13 14 17 19 18 11 10 11 11 12 11 11 11 7 7 11 10 6 11 5 6 9 20 25 25
9 10 11 10 11 9 13 13 11 9 10 11 11 11 10 10 11 8 9 11 11 13 14 10 11 10 12 13 12 10 10 4 4 8 14 6 11 8 6 5 17 24 25
9 9 10 11 11 10 12 12 10 9 9 10 9 11 11 11 14 12 9 9 10 10 11 16 15 16 16 20 18 8 11 8 5 7 13 7 10 10 5 4 9 18 23
9 9 9 8 12 10 13 11 8 6 8 8 9 10 15 12 15 14 9 7 8 8 8 9 9 11 13 14 19 14 10 11 8 6 13 9 11 10 6 3 9 10 13
Wind_Direction
55 49 43 42 36 22 24 17 9 4 356 351 342 334 324 314 305 295 286 272 258 248 253 254 253 254 239 223 211 210 214 215 222 209 206 203 210 207 207 204 199 198 197
48 50 49 42 36 26 17 11 11 355 355 341 332 336 321 306 300 299 296 290 265 269 259 259 263 268 264 241 228 223 228 202 224 209 207 201 200 205 211 206 207 204 199
54 55 51 46 33 24 20 14 11 2 353 344 337 328 317 310 307 307 299 292 297 260 270 278 271 267 249 245 222 231 244 223 223 219 215 211 198 209 208 207 207 208 206
49 57 56 46 33 31 24 21 13 358 355 348 332 320 309 305 311 307 299 300 296 303 293 281 278 277 269 258 259 242 220 219 213 210 207 209 214 209 227 219 211 213 211
46 53 50 43 30 33 28 17 17 9 356 346 328 315 308 309 319 316 310 307 305 312 324 319 306 282 265 258 258 250 241 226 221 223 220 221 220 215 216 222 214 214 211
50 56 57 45 37 38 35 22 13 9 6 343 315 306 311 325 21 26 27 47 49 39 30 22 10 360 357 318 277 257 253 238 235 239 235 238 240 222 219 206 216 217 219
55 52 54 48 42 41 34 27 20 15 18 358 336 339 330 44 53 46 49 50 43 41 27 22 15 4 355 30 48 43 -0 351 310 267 248 244 253 251 217 234 226 224 227
50 53 47 46 39 39 35 31 25 18 27 23 6 312 354 303 29 35 49 50 43 31 22 15 12 12 8 46 37 39 31 26 19 10 352 331 289 254 238 237 232 226 224
52 50 49 46 44 40 39 37 30 29 22 31 42 12 349 342 337 42 31 31 26 23 11 7 21 18 21 34 30 25 22 22 15 13 5 358 350 326 241 232 229 231 228
57 52 51 49 51 50 46 45 43 42 32 33 15 12 3 327 318 305 314 330 1 352 353 348 8 32 27 32 31 19 18 19 13 14 8 2 355 350 349 288 224 232 239
56 53 53 57 55 53 54 49 46 42 44 46 40 343 340 314 28 324 308 336 314 327 332 323 3 16 23 23 27 11 15 18 17 15 11 8 357 357 346 320 299 273 256
73 60 65 67 62 60 54 53 44 43 37 39 23 26 14 358 346 330 305 319 308 322 313 337 34 19 18 12 16 1 13 27 22 17 16 18 10 6 1 351 309 280 273
82 65 67 63 54 54 56 53 43 43 38 41 33 26 21 24 346 320 309 318 308 311 305 59 42 26 13 4 3 357 18 26 25 26 24 24 18 18 17 18 16 358 321
87 75 72 69 64 58 62 61 50 42 36 38 34 30 22 19 360 356 340 324 309 282 292 16 73 29 11 4 4 345 12 30 30 29 30 33 33 31 26 26 29 28 21
91 77 70 70 63 60 57 60 55 43 32 35 32 33 24 13 6 0 353 324 314 313 315 60 11 19 3 351 7 345 8 39 37 31 34 39 40 38 34 32 34 37 29
99 94 87 80 72 67 65 64 60 46 42 37 29 29 23 20 13 10 353 337 335 310 287 34 25 12 1 353 351 343 5 56 34 35 35 43 40 41 37 36 36 38 36
104 98 96 88 75 71 67 72 71 60 51 46 35 34 27 25 18 12 -0 354 347 349 316 2 23 12 5 355 347 347 7 47 36 36 30 37 44 40 38 35 36 35 34
108 107 105 90 81 73 70 70 65 54 43 41 37 40 30 24 26 21 10 358 356 3 346 351 4 13 352 360 344 353 11 47 35 24 40 32 38 41 39 37 33 32 33
114 110 101 94 87 81 76 70 62 55 53 42 41 42 36 28 29 24 20 6 5 4 10 9 13 12 1 3 357 6 27 27 34 21 31 28 30 38 36 38 35 30 27
115 117 105 98 89 80 74 72 70 67 59 53 49 48 44 37 31 28 29 17 10 10 16 26 24 21 8 7 1 2 19 32 28 17 13 31 21 37 40 33 32 28 24
126 116 115 95 84 78 70 81 76 72 74 66 59 55 49 48 43 40 34 33 25 21 28 31 35 31 15 6 7 358 2 4 70 24 355 32 9 24 30 31 30 24 21
122 114 104 94 87 80 84 82 81 80 73 58 64 60 62 52 57 50 44 45 45 34 39 30 31 24 15 7 356 359 7 18 29 25 343 32 4 28 26 29 24 23 22
125 116 109 102 99 98 93 93 91 82 76 70 61 56 57 53 56 57 60 50 44 47 49 40 38 30 14 4 348 3 14 32 53 18 349 17 10 10 15 35 20 23 19
117 116 109 111 103 96 106 101 99 93 87 77 71 71 64 52 50 59 65 61 51 39 40 42 43 27 24 13 4 4 356 37 76 39 8 3 7 353 340 359 17 16 14
121 112 117 118 113 115 117 113 110 103 92 81 74 77 73 65 58 60 66 66 60 46 40 46 48 44 32 31 27 14 21 21 38 27 21 340 359 336 320 335 6 10 9
116 115 111 107 111 115 119 122 119 116 102 90 76 67 71 72 67 64 67 71 67 39 33 35 34 33 32 30 33 35 17 30 21 22 9 353 356 1 327 360 354 360 356